Wind_Speed
1 2 1 1 2 2 2 3 2 3 2 1 3 1 4 4 3 3 2 3 1 2 3 2 2 2 2 4 6 6 4 5 5 5 3 4 13 18 19 17 17 18 18 17 18 18 17 15 13 13 14 13 12 13 12 11 11 11 11 11 11 9 9 10 10 10 10 10 9 9 9 8 7 7 8 7 8 8 7 6 6 7 6 7 8 8 7 8 7 6 6 5 5 5 5 3 3
0 1 1 1 2 2 0 3 2 4 4 3 4 3 5 3 1 6 7 6 4 3 2 1 5 6 5 6 6 4 1 1 3 4 2 8 14 16 19 18 18 18 17 17 17 18 18 16 14 14 14 14 13 14 13 12 12 11 11 11 11 9 9 9 9 9 8 8 7 7 7 6 5 4 6 5 4 5 4 5 4 3 4 4 4 5 4 4 3 2 2 1 2 3 3 3 3
1 1 2 1 2 3 1 3 2 1 2 3 5 4 3 2 5 7 7 7 6 4 3 3 3 4 6 4 2 3 2 2 2 3 2 12 13 17 23 19 19 17 17 17 17 18 17 17 15 15 14 14 14 14 13 13 12 12 12 11 12 11 10 9 9 9 8 8 7 7 7 6 5 5 6 6 4 4 4 4 5 4 4 4 3 3 2 1 1 1 2 2 2 3 2 3 3
1 1 3 2 2 3 4 3 2 4 1 3 3 5 3 4 7 6 7 7 5 3 2 3 1 1 4 1 2 2 2 3 4 6 4 15 18 22 26 20 21 18 18 19 17 17 17 17 16 16 14 14 14 14 14 13 13 13 13 13 13 12 11 11 11 10 10 9 9 8 8 7 7 7 6 5 4 3 4 4 5 5 5 5 4 3 2 2 1 2 2 2 2 2 2 2 3
1 2 3 3 2 1 3 1 2 4 4 4 2 6 6 6 7 6 5 5 4 3 3 4 2 2 2 2 3 1 5 2 5 10 7 17 22 26 27 22 23 20 19 19 17 17 17 18 16 16 14 14 15 14 14 14 14 13 14 14 14 13 12 12 12 12 11 10 9 8 8 7 7 6 4 3 3 3 3 4 4 5 5 5 4 3 2 2 1 1 2 2 3 3 3 3 3
2 2 3 4 2 1 2 1 2 3 5 5 3 6 7 6 7 6 3 4 4 3 4 4 3 3 0 1 1 2 5 1 5 11 10 18 25 28 27 23 24 22 21 19 17 18 19 19 17 17 15 16 15 15 15 13 13 12 13 13 13 13 12 12 11 11 11 10 9 9 8 8 7 6 6 5 4 4 4 4 4 4 4 4 4 3 2 1 1 1 2 3 3 3 3 3 4
3 2 2 4 1 1 3 3 4 4 5 6 5 6 7 6 6 6 4 3 1 2 2 3 3 6 1 1 1 3 3 3 5 6 11 22 29 31 27 24 24 23 21 20 19 19 20 19 18 17 16 15 14 13 13 12 13 12 13 13 12 12 12 12 11 11 10 10 10 9 9 9 9 8 7 7 6 6 5 5 5 4 4 4 4 4 3 2 2 3 3 4 4 3 3 4 4
4 1 1 4 1 2 3 3 4 4 4 5 5 6 7 8 7 7 6 4 2 2 2 3 3 4 3 1 1 4 3 7 5 4 13 26 32 33 29 27 26 25 23 22 20 20 21 19 18 17 15 14 13 13 13 14 14 14 14 14 14 13 13 12 12 11 10 11 10 10 10 10 9 9 8 8 7 7 6 6 6 6 6 5 5 5 5 5 4 4 4 5 5 5 4 4 4
3 2 1 3 1 1 1 3 4 4 5 6 6 7 5 7 7 6 7 3 1 3 4 5 4 2 3 2 2 4 3 9 6 6 20 29 33 34 31 30 28 27 25 23 22 22 21 19 18 16 15 14 14 15 15 15 15 15 15 14 14 14 14 13 13 12 11 11 11 11 10 10 10 9 9 8 8 8 8 8 8 8 8 7 7 7 6 6 6 6 6 6 6 6 6 6 6
3 3 1 1 2 1 4 3 3 4 6 5 7 8 5 8 7 5 6 5 3 4 5 3 1 2 3 4 3 3 4 10 9 15 25 30 33 33 32 30 28 28 26 24 22 22 22 19 18 17 16 16 16 16 15 15 14 14 14 14 14 14 14 13 13 13 12 12 12 12 11 11 11 10 10 10 10 10 10 10 10 10 10 9 9 9 8 8 8 7 8 8 8 8 8 7 7
2 3 2 2 2 1 4 4 4 5 6 5 6 6 5 8 6 3 3 3 3 3 3 2 1 4 3 2 3 2 6 12 17 24 28 31 33 32 32 30 27 27 25 23 23 23 22 20 19 18 18 17 16 16 15 14 14 14 13 14 14 14 14 13 14 13 13 13 13 13 12 12 12 12 11 11 11 11 11 11 11 11 11 11 10 10 10 10 9 9 9 9 9 9 8 8 8
2 3 4 3 2 3 4 3 5 6 7 5 4 4 5 8 5 4 5 4 3 3 4 5 4 5 3 4 3 3 7 18 21 25 30 33 33 31 31 29 28 26 24 23 23 23 22 22 21 20 19 17 17 15 14 14 13 13 13 14 14 14 14 14 14 14 14 14 14 14 14 13 12 12 11 11 11 11 11 11 11 11 11 11 11 11 11 11 10 10 9 9 9 8 8 8 8
3 1 5 2 3 3 3 3 5 5 6 4 4 2 6 7 5 7 6 3 5 5 6 8 4 4 4 3 3 3 8 21 23 26 31 33 32 31 30 29 28 26 25 24 23 24 24 23 22 21 20 18 17 15 14 14 13 13 14 14 15 15 15 15 15 15 15 15 15 14 14 13 12 12 11 11 11 10 10 10 11 11 11 11 12 12 12 12 11 11 10 10 9 9 9 9 8
2 2 4 1 1 1 3 3 4 2 5 6 3 2 5 4 5 6 7 4 7 7 5 7 6 3 4 2 2 3 10 23 25 28 32 32 30 29 29 28 27 26 25 25 24 24 25 24 23 22 20 19 17 16 15 14 14 14 15 15 16 16 16 16 16 16 15 15 14 14 13 13 12 12 11 11 10 10 10 10 10 10 10 11 11 11 11 12 11 11 11 10 10 10 10 10 9
2 1 4 1 2 2 3 4 3 3 4 5 3 1 3 3 2 4 7 6 8 5 0 3 5 2 4 5 5 6 16 28 27 29 31 29 27 27 28 28 27 27 26 26 25 25 26 25 24 23 21 20 18 17 16 16 16 16 16 16 17 17 18 17 17 17 16 15 15 14 13 13 12 11 11 11 10 10 10 10 10 10 9 9 9 9 9 9 9 9 10 10 10 10 10 10 10
2 3 4 1 2 2 3 4 1 1 5 5 3 1 1 6 1 3 5 4 2 3 2 4 5 2 5 8 5 6 20 31 29 30 29 26 25 25 26 27 27 27 26 26 26 26 27 27 25 24 22 21 19 18 17 17 17 17 18 17 18 18 18 18 18 17 17 16 16 15 15 14 13 12 12 11 11 11 10 11 10 10 9 9 9 9 9 8 8 8 8 8 8 8 8 9 9
3 4 2 2 2 2 4 4 2 2 5 6 5 1 4 6 3 2 2 2 1 2 2 5 3 1 3 4 5 4 25 33 31 30 26 24 24 23 24 26 27 27 28 28 27 28 28 28 27 26 24 22 21 19 18 19 19 19 19 19 20 20 19 19 18 18 18 17 17 17 16 16 15 14 14 13 13 12 12 11 11 11 10 10 10 9 9 9 9 8 8 8 8 8 8 8 8
3 3 2 3 3 4 5 6 5 3 3 5 4 4 7 5 4 1 1 1 2 2 4 4 2 3 2 2 2 15 31 34 32 31 27 24 23 23 24 27 29 30 31 30 29 29 30 30 29 28 26 24 23 21 21 21 21 22 22 22 22 21 21 20 20 20 19 19 18 18 18 18 17 16 16 15 14 14 13 13 12 12 11 11 11 10 10 10 10 10 9 9 9 9 8 8 8
2 3 2 4 6 5 5 5 4 2 4 5 5 4 6 6 4 2 2 5 3 4 6 4 5 5 3 3 12 23 31 33 33 32 28 27 27 26 26 27 30 31 33 34 34 33 32 32 31 30 28 27 25 24 23 23 24 24 24 24 23 23 22 22 22 21 21 21 20 20 20 19 19 18 17 16 15 15 14 13 13 12 12 11 11 11 11 10 10 10 10 10 10 10 9 9 10
2 3 2 6 7 5 6 6 6 6 4 3 5 2 4 6 3 2 4 6 4 7 8 4 8 11 5 4 12 22 27 29 30 30 28 28 30 30 28 29 32 35 38 39 38 36 35 34 33 32 30 29 27 26 26 26 26 26 26 25 25 24 24 24 23 23 23 23 22 22 21 20 19 19 18 17 15 15 14 13 13 12 11 11 10 10 10 10 10 10 10 10 10 10 10 10 10
2 4 5 7 4 4 8 7 7 7 4 4 4 1 3 6 3 3 4 4 7 9 10 10 12 13 9 6 10 18 21 23 26 27 26 27 28 29 30 34 37 38 37 36 37 38 37 36 35 33 32 31 30 29 30 29 29 29 28 27 27 26 26 26 25 25 25 25 24 23 22 21 20 19 17 16 15 14 14 13 12 11 11 11 10 9 10 10 9 9 9 10 10 10 10 10 10
2 5 8 7 3 4 9 6 5 5 2 3 4 3 5 2 2 5 7 8 10 7 9 12 13 12 11 12 13 15 16 18 21 24 25 27 29 30 31 33 33 32 32 35 39 40 40 38 36 35 34 33 32 31 32 31 32 31 31 30 29 29 28 28 27 27 27 26 25 23 22 21 19 17 16 15 15 14 13 12 12 10 9 9 9 8 9 9 8 9 9 9 10 10 10 10 9
3 6 6 7 6 6 8 5 4 3 3 6 5 4 2 1 5 5 9 15 14 7 7 11 12 12 13 15 14 14 14 15 19 25 29 30 31 33 34 34 34 34 35 39 41 41 41 40 38 37 36 35 34 33 33 33 33 33 32 32 31 31 30 30 29 28 28 26 24 22 20 19 18 17 16 16 15 14 12 11 10 9 8 8 8 7 7 8 8 8 8 8 9 9 9 9 9
6 6 5 7 8 9 10 7 6 4 6 9 3 3 3 6 7 2 8 18 16 9 6 8 9 8 12 13 14 16 17 18 23 32 35 36 39 41 40 38 38 36 36 38 39 40 42 42 41 39 38 37 36 35 35 35 34 34 33 33 32 31 31 30 29 28 27 25 23 21 19 19 18 17 17 16 14 13 11 10 9 8 7 7 7 6 6 7 7 7 6 7 7 8 8 9 9
6 8 6 4 5 8 9 7 8 7 8 6 3 7 9 9 4 5 17 21 12 9 8 7 4 6 11 13 15 16 15 19 24 29 32 35 37 37 35 35 34 33 36 38 38 40 43 43 43 42 41 39 38 37 37 36 36 35 35 34 33 32 32 31 29 28 27 25 24 22 21 20 19 18 17 16 14 13 11 9 8 7 6 6 6 6 6 6 6 6 5 6 6 7 7 9 9
7 8 5 4 6 8 7 7 8 7 5 3 3 13 11 6 3 9 23 20 9 9 9 9 6 6 10 12 15 16 16 18 21 26 30 33 30 28 32 33 33 36 40 39 39 42 43 43 44 44 43 41 40 39 38 38 37 37 37 35 34 33 32 30 29 29 28 27 25 24 22 20 19 18 17 16 15 13 11 10 8 7 6 6 5 5 6 5 5 5 5 5 6 7 7 8 9
5 5 5 7 8 9 6 7 9 5 5 6 7 15 12 3 1 10 20 9 4 8 10 9 8 10 11 11 12 14 15 20 25 26 24 24 25 29 33 34 36 40 39 37 41 42 42 43 45 45 44 42 41 40 40 40 39 39 37 36 35 34 32 31 30 30 28 27 25 24 22 20 19 19 18 17 15 13 12 10 8 6 5 5 4 4 5 5 4 5 5 6 6 7 8 8 9
2 2 6 9 7 9 9 8 9 3 4 8 10 12 12 2 3 14 22 6 5 5 8 8 9 11 12 11 12 11 12 22 27 23 19 23 29 34 35 38 42 40 39 41 43 41 41 44 45 45 45 43 42 42 41 41 41 40 38 37 36 34 33 32 31 30 29 28 26 24 23 22 20 19 18 17 16 14 12 10 8 7 5 4 4 3 4 4 4 5 5 5 6 6 7 7 8
2 1 5 11 7 10 15 9 7 5 3 5 9 5 9 5 10 19 23 9 1 5 8 9 9 11 10 10 10 9 13 19 20 20 26 33 37 38 40 45 45 41 43 43 40 39 42 44 45 45 44 44 44 43 43 42 42 41 40 38 37 35 34 34 33 31 30 28 27 25 24 23 22 20 19 17 16 14 12 11 9 7 6 4 4 3 3 3 3 3 4 5 5 5 6 7 8
4 2 1 8 7 10 13 3 3 5 4 6 9 3 8 11 17 20 18 9 4 7 11 11 10 10 9 9 8 10 12 14 16 24 34 37 38 39 42 45 43 42 41 38 38 41 43 44 44 44 45 45 45 44 43 43 43 42 41 39 37 37 36 35 34 32 31 30 28 27 25 24 23 21 20 19 17 15 14 12 10 9 7 5 4 3 2 2 2 2 3 4 4 5 7 8 9
4 2 1 3 2 9 9 3 4 3 4 7 8 3 9 13 18 16 11 6 5 9 13 12 11 10 9 9 9 11 11 13 21 30 35 38 38 38 40 40 39 40 38 37 42 44 43 43 44 45 46 46 45 45 45 45 44 43 42 40 39 38 36 36 35 34 32 31 30 28 27 25 24 23 21 20 18 17 15 13 12 10 8 7 5 4 2 1 1 1 3 3 4 6 7 9 11
2 2 4 2 3 8 11 4 6 7 5 5 7 4 8 15 19 15 7 5 7 9 13 13 11 10 9 9 9 11 11 13 21 29 33 36 37 36 38 38 37 39 40 42 43 42 42 43 44 45 46 46 46 46 45 45 45 43 42 41 39 39 37 37 36 35 34 33 31 30 28 27 25 24 22 21 19 18 16 14 13 11 9 8 6 5 3 2 1 1 2 3 5 6 8 10 11
2 3 6 5 5 4 8 8 6 10 4 3 7 6 6 11 15 13 6 5 8 9 13 13 12 11 10 9 9 10 10 10 15 22 31 35 35 36 38 38 39 42 44 44 42 41 43 43 44 45 46 48 47 46 45 45 44 44 43 41 40 39 38 38 36 35 35 34 33 31 30 28 26 25 23 22 20 19 17 16 14 12 11 9 7 6 4 3 1 1 2 4 5 7 9 10 11
4 3 5 6 7 4 4 9 6 6 7 6 10 9 10 14 13 11 6 5 7 8 12 13 11 10 10 10 9 10 10 11 12 17 29 35 35 37 37 39 41 42 43 43 43 44 45 45 46 46 46 47 46 45 45 44 44 42 41 40 40 39 39 38 37 36 36 35 34 33 31 29 28 26 25 23 22 20 18 17 15 13 12 10 9 7 5 4 2 1 1 3 5 7 8 10 12
7 5 5 4 6 6 7 9 4 3 5 8 8 10 15 18 16 14 11 7 6 10 11 10 10 11 10 9 10 11 11 13 14 20 29 31 32 35 36 38 40 40 41 42 43 44 43 44 45 45 45 45 45 44 43 42 41 40 39 38 38 38 38 38 37 37 36 36 35 34 32 31 30 28 27 25 23 22 20 18 16 14 13 11 10 8 7 5 4 2 1 2 3 5 6 9 11
10 7 5 5 7 7 8 12 7 3 6 8 9 13 15 17 18 18 17 12 11 14 11 9 10 11 11 9 10 11 12 14 17 24 27 24 26 33 35 37 38 39 40 40 41 42 42 43 43 43 44 44 43 42 41 40 38 38 37 37 38 39 40 39 38 37 37 37 36 35 34 33 31 29 28 27 25 23 22 20 17 16 14 13 11 10 8 7 5 3 1 1 2 3 5 7 10
7 5 6 8 9 9 10 14 11 5 6 9 12 17 17 16 18 18 16 12 12 16 14 13 13 13 13 12 13 13 14 16 17 21 22 20 23 29 33 35 35 35 36 37 40 42 44 44 44 44 44 44 44 44 43 42 41 39 38 40 42 41 41 40 39 39 38 38 37 36 36 34 32 31 30 28 26 25 23 20 19 17 16 14 12 11 10 8 6 4 3 2 1 2 4 6 9
8 7 8 9 8 12 13 13 13 5 5 9 11 16 19 16 17 16 13 12 14 17 16 17 17 14 12 14 17 16 14 14 14 15 16 18 22 26 30 33 34 35 36 39 42 44 45 45 46 46 45 46 47 47 47 46 46 44 43 44 43 41 42 42 41 41 41 39 38 37 37 35 34 32 31 29 28 26 24 22 21 19 17 15 14 13 11 9 8 6 4 2 1 1 3 4 9
8 6 7 8 7 12 12 11 14 5 4 8 9 13 16 13 15 14 14 15 16 16 16 18 18 14 13 15 16 16 16 15 14 15 13 14 19 24 27 30 35 38 39 41 43 43 44 45 46 46 46 47 48 48 48 47 46 45 42 41 40 39 40 42 41 41 40 39 38 37 37 36 35 34 32 30 29 27 26 24 22 20 18 17 16 14 13 11 9 7 5 3 2 1 2 3 7
7 6 6 8 7 9 9 6 9 4 3 6 8 11 12 9 11 12 15 19 16 15 16 17 17 14 15 17 15 14 17 17 16 18 14 10 14 19 24 29 33 34 35 37 40 41 43 45 46 45 46 48 47 47 47 45 42 40 37 35 36 36 36 37 37 37 39 39 38 38 37 37 36 35 33 31 30 28 27 25 23 21 20 18 16 15 14 12 10 8 7 5 3 2 1 1 3
9 9 8 11 12 12 11 6 6 5 4 5 6 12 11 9 12 13 13 16 15 14 15 16 18 16 15 17 16 15 17 17 17 18 14 9 10 16 23 27 30 32 34 38 42 43 44 45 45 45 46 46 47 47 45 42 39 37 33 29 29 31 30 31 34 35 38 39 40 40 39 38 37 35 34 32 31 30 28 26 24 23 21 19 17 16 14 12 10 9 8 6 4 3 3 2 1
8 8 13 18 16 13 13 10 8 6 6 4 1 8 9 7 12 13 10 10 12 11 13 16 19 17 13 15 18 17 16 17 16 18 15 9 9 13 20 25 28 31 36 40 43 44 43 43 44 44 45 45 45 45 44 42 40 39 37 33 32 32 29 33 39 40 41 42 42 42 40 38 37 35 34 33 32 30 29 27 25 24 22 20 19 16 15 13 12 11 9 8 6 4 4 3 2
9 6 13 17 13 10 12 9 5 3 5 4 2 2 10 6 7 10 10 9 11 10 12 16 17 15 12 13 16 16 15 14 13 15 14 10 10 11 16 24 29 33 37 38 38 40 40 41 43 44 44 44 44 44 44 43 42 42 42 41 39 37 35 37 41 40 41 42 41 40 40 38 37 36 35 34 33 31 29 28 27 25 23 21 19 18 17 15 13 12 10 9 8 6 5 4 4
8 4 9 10 9 9 8 6 5 4 3 4 2 4 8 13 6 10 12 10 10 11 14 17 16 13 12 13 15 16 17 15 10 11 12 12 11 12 16 24 32 35 34 33 34 37 39 39 42 43 42 42 43 43 45 46 45 44 44 42 39 40 40 38 36 36 38 40 39 39 40 39 39 37 36 35 34 32 31 29 28 26 24 22 21 19 17 15 14 14 13 11 10 8 6 5 5
7 3 7 7 6 6 5 5 5 2 4 4 4 5 4 14 7 7 9 9 9 13 17 18 16 12 12 14 15 16 17 14 9 11 13 12 11 15 20 26 31 32 30 33 36 38 38 39 40 42 42 42 43 44 46 47 47 45 44 42 39 39 38 34 33 35 36 37 39 40 40 40 40 39 38 36 34 33 32 30 29 27 25 24 22 20 18 17 16 16 14 13 11 9 7 6 5
4 6 5 5 3 3 5 3 1 2 5 5 6 5 3 13 7 4 3 5 9 13 14 14 13 11 12 13 14 15 14 12 11 12 12 11 11 17 21 23 26 28 30 33 35 35 37 38 40 42 43 42 42 44 46 47 46 44 44 44 42 38 35 33 32 33 35 37 38 39 40 41 41 40 39 37 36 34 32 31 30 28 27 25 23 21 20 20 18 16 15 13 12 10 8 7 6
3 7 5 6 5 5 4 1 4 2 8 6 10 11 7 8 6 5 4 5 8 9 8 9 10 11 13 12 12 13 14 13 10 9 9 8 9 14 18 19 22 26 28 30 32 34 37 38 40 41 41 40 42 44 46 47 47 46 45 46 44 40 37 35 33 34 36 37 38 40 40 41 41 42 41 39 37 35 34 33 31 29 28 26 24 23 22 21 19 17 16 14 13 11 9 8 8
5 4 4 3 4 4 4 4 4 2 9 6 12 13 10 10 7 3 5 6 5 7 8 9 11 12 12 11 11 12 13 12 7 6 7 6 6 9 13 16 19 23 26 29 32 34 36 37 39 39 39 41 42 44 46 46 47 47 47 46 45 43 40 39 39 38 39 40 41 40 39 39 40 40 41 40 39 38 36 35 32 31 29 27 26 24 23 21 19 18 17 15 14 12 10 9 9
5 4 5 1 4 3 2 3 1 4 8 5 9 8 7 12 8 4 8 10 8 9 9 10 11 11 11 11 11 12 10 9 7 6 7 6 7 9 10 13 18 22 27 30 32 34 35 37 39 40 42 43 43 43 46 47 48 50 49 47 46 43 42 42 42 41 41 43 42 40 40 40 40 41 42 43 43 41 39 37 36 34 32 30 28 26 23 22 20 19 18 17 15 13 11 10 10
7 6 6 5 3 2 3 4 2 5 8 4 5 5 5 8 4 9 15 15 13 9 9 11 11 11 12 11 11 10 10 9 8 7 6 7 9 9 10 13 17 21 26 29 31 34 35 36 39 41 42 42 43 44 46 47 49 51 50 48 45 43 43 43 43 43 43 43 43 43 44 44 44 45 46 47 46 44 41 40 38 36 33 31 29 26 24 23 22 20 19 17 16 14 12 10 10
7 5 6 6 5 5 4 5 6 7 6 4 2 5 5 3 2 8 12 9 8 6 7 8 8 9 10 10 10 11 12 12 7 5 6 8 9 9 9 13 18 21 24 27 30 33 34 36 39 41 40 42 44 45 45 47 50 50 48 47 45 44 44 44 43 43 43 43 44 44 45 46 46 47 47 47 46 44 43 41 39 37 35 32 30 27 26 24 23 21 19 18 16 14 12 11 11
3 4 4 4 6 6 4 6 6 3 2 4 3 5 5 4 5 7 7 8 8 6 7 6 8 10 10 11 12 12 13 11 5 3 7 8 8 8 9 13 17 19 22 26 30 32 35 37 39 41 42 42 44 44 45 47 48 45 44 46 46 45 44 43 43 43 43 43 44 44 46 46 46 46 46 45 45 45 44 42 40 38 36 33 31 29 28 26 25 23 21 19 17 15 13 12 12
3 4 4 4 4 6 5 6 2 2 4 6 4 6 6 5 8 6 3 6 7 7 9 9 10 11 9 10 11 11 12 10 6 5 7 7 7 8 10 14 17 21 25 29 33 37 39 39 39 40 40 39 42 45 46 46 44 42 43 44 44 44 45 46 46 45 43 42 42 43 44 44 45 45 45 45 45 45 45 43 42 40 37 34 32 30 29 27 26 23 22 20 18 15 14 13 13
5 4 6 2 3 2 3 2 2 2 8 7 6 11 9 5 8 4 5 5 8 8 7 7 9 9 8 10 11 11 11 9 8 7 8 7 8 8 10 15 21 26 30 33 36 38 38 37 38 38 38 40 44 46 46 45 43 43 44 45 46 46 47 47 45 43 41 40 41 43 42 43 44 45 45 45 45 45 45 44 43 41 38 35 33 32 30 28 26 24 22 20 17 16 15 15 14
5 4 2 4 1 3 2 3 3 6 9 7 10 16 10 7 9 5 4 8 10 8 6 6 8 8 8 9 11 13 11 9 9 8 8 8 8 9 11 16 22 27 29 31 33 33 34 36 37 37 39 41 41 39 39 41 42 43 45 46 48 48 46 45 44 41 39 41 43 43 43 43 44 44 45 45 45 45 45 45 44 41 39 37 35 33 31 29 27 24 23 21 19 18 17 16 15
1 1 2 1 3 4 3 3 3 6 10 8 10 13 10 8 6 5 7 8 7 6 6 7 8 8 7 8 9 11 11 11 10 9 8 9 9 10 13 17 21 24 26 27 28 30 34 36 36 36 38 38 37 37 39 41 43 45 46 45 45 46 46 45 43 41 41 43 44 44 44 44 44 44 45 45 46 46 46 46 45 42 40 38 36 34 32 30 27 25 24 22 20 19 19 17 16
2 2 3 2 2 1 1 2 2 3 8 8 8 10 10 7 4 7 7 7 5 3 8 8 9 9 9 9 8 9 10 11 11 9 9 10 10 11 13 16 17 18 21 24 27 30 32 33 34 37 38 37 38 40 42 43 45 46 45 44 45 46 46 45 42 42 42 43 43 43 44 44 44 44 45 45 46 46 47 46 45 43 42 40 38 36 33 31 29 26 25 23 21 21 20 18 17
6 6 7 7 6 4 5 7 5 4 6 8 9 10 9 7 3 5 4 5 6 8 9 8 8 9 10 9 9 9 8 10 11 11 11 11 11 10 10 11 13 16 20 23 27 28 29 32 36 37 37 38 40 43 44 46 46 45 45 46 46 45 44 43 42 42 43 44 43 44 45 44 44 45 45 45 46 45 45 46 45 44 42 41 39 38 35 33 30 29 27 24 23 22 20 19 18
Wind_Direction
172 132 51 40 2 44 50 65 72 318 80 279 270 213 260 228 195 175 199 227 198 264 248 309 59 83 97 135 163 168 153 163 168 145 212 198 142 158 171 171 172 169 167 167 170 169 165 162 155 156 161 149 142 145 151 150 148 152 146 145 143 138 139 135 134 129 125 130 133 132 127 126 122 125 127 122 130 134 135 132 108 94 97 95 89 83 84 87 87 101 111 99 81 77 77 73 60
177 120 22 8 18 56 248 72 94 324 41 317 280 182 252 286 193 193 199 208 211 205 196 125 77 62 66 87 119 130 144 218 171 154 214 151 145 165 174 178 177 173 173 170 173 173 169 167 161 157 157 148 144 147 146 146 149 148 147 147 144 140 142 144 144 136 128 137 143 140 138 137 136 127 121 112 132 154 153 160 149 115 98 106 106 91 97 104 99 126 133 74 33 34 39 27 13
129 131 31 61 44 49 57 45 92 33 55 278 274 241 257 260 222 217 215 220 220 163 133 160 97 71 77 55 103 130 205 264 156 143 131 162 166 171 172 179 177 177 177 172 172 175 171 166 162 156 150 146 144 144 142 142 144 140 140 141 145 146 143 142 142 142 138 144 145 137 136 132 132 112 102 100 113 143 142 151 145 108 86 96 108 104 135 165 101 20 5 347 349 356 0 0 354
76 54 6 48 58 27 66 46 149 130 170 235 265 271 258 215 218 229 234 233 229 154 141 167 108 116 109 146 196 99 225 257 195 165 155 187 184 168 169 175 176 181 179 175 173 175 174 165 161 157 149 146 144 140 141 145 151 146 140 138 142 144 140 139 137 138 136 137 133 125 125 118 111 105 105 109 128 146 138 145 135 115 106 110 112 109 110 115 92 37 18 353 348 345 349 350 340
28 3 351 41 88 33 98 87 124 130 206 199 221 268 250 219 203 211 241 252 244 223 203 150 126 241 106 180 180 141 210 238 209 185 178 190 179 164 168 174 177 183 181 179 178 180 176 167 164 160 153 151 149 148 154 161 163 157 150 148 149 149 149 150 144 139 138 138 139 136 136 129 122 128 140 154 171 169 153 151 142 136 131 125 112 101 88 93 93 23 356 351 349 344 347 342 332
9 47 8 37 97 134 113 212 191 207 225 182 204 260 250 222 197 191 225 272 272 242 199 167 156 166 71 243 182 210 198 127 173 194 200 180 170 166 170 175 178 183 183 182 185 185 176 170 167 162 159 158 157 158 164 165 162 159 156 157 158 160 160 160 155 152 156 161 165 165 165 163 161 167 169 168 165 158 158 151 144 144 138 135 124 112 90 72 34 358 347 353 350 349 353 348 343
22 47 12 49 39 37 115 211 215 234 238 187 194 248 246 215 193 172 176 216 294 302 211 210 153 121 205 231 183 219 212 201 160 209 209 172 165 168 174 177 178 183 185 186 187 185 178 172 166 164 164 160 159 160 163 162 162 162 161 162 163 164 164 164 164 164 165 166 169 169 169 170 170 171 167 163 159 155 154 150 147 141 134 133 123 110 86 60 39 22 7 9 6 5 4 2 0
35 49 26 89 45 9 111 245 239 216 243 221 212 240 232 195 179 169 179 186 182 245 211 234 182 119 237 163 172 233 216 206 203 249 190 167 167 170 178 181 180 184 186 189 188 185 182 173 168 168 167 164 165 165 166 166 166 166 166 167 167 167 168 168 169 168 165 165 166 166 166 166 167 166 162 158 155 152 147 141 135 130 127 122 114 105 87 72 62 52 41 35 30 29 28 25 21
36 48 45 95 138 333 357 286 268 234 249 255 250 247 220 177 176 169 177 220 227 195 211 217 194 173 218 169 232 268 243 215 220 199 175 169 171 174 182 185 186 187 187 191 190 188 183 176 173 173 172 174 175 172 171 170 170 171 171 172 171 171 171 170 170 168 167 166 165 166 166 164 163 158 155 149 143 139 133 127 122 119 116 114 110 103 95 87 80 74 68 62 56 52 50 48 43
31 32 95 95 114 305 308 279 260 260 247 251 259 242 195 165 180 186 176 220 212 170 224 215 182 206 174 178 232 277 224 209 189 171 173 173 174 178 184 188 192 190 189 191 191 188 184 180 178 179 182 182 180 178 178 176 176 176 176 176 175 175 173 172 169 167 165 164 162 160 159 156 153 149 146 140 135 131 127 122 118 114 110 109 106 102 97 91 85 82 80 76 73 68 66 63 59
30 350 93 91 76 216 258 257 260 265 269 295 289 247 186 162 166 205 184 213 207 168 205 153 215 205 154 220 242 267 190 187 181 172 173 175 176 182 185 188 194 196 192 189 189 188 185 184 183 185 186 185 184 183 183 182 182 180 179 177 176 175 173 171 167 165 161 157 155 151 150 148 145 144 140 136 133 129 124 119 114 110 105 102 99 97 91 87 84 81 80 80 78 74 72 71 71
84 325 65 105 168 203 216 233 265 272 295 310 280 249 164 153 151 206 199 195 194 186 210 188 193 165 145 274 264 309 187 184 185 177 175 176 178 184 188 189 193 198 195 190 188 188 187 186 187 189 188 188 186 186 187 185 186 185 182 179 176 174 171 169 164 160 156 152 150 148 147 145 142 139 136 134 131 126 122 117 113 108 104 99 96 94 92 90 86 85 84 83 83 78 76 74 74
123 154 84 143 192 186 209 220 268 290 307 273 233 232 140 152 194 209 187 177 170 168 231 209 163 145 182 269 271 309 203 189 183 177 176 176 180 184 189 190 193 197 197 194 191 190 191 191 192 192 190 191 189 190 191 189 190 188 184 180 176 174 170 167 162 158 155 151 150 148 146 143 141 139 137 135 131 128 124 119 115 111 109 106 102 99 97 96 92 91 89 88 89 85 84 80 77
146 151 113 208 247 176 213 242 276 275 282 257 241 219 154 175 211 189 151 175 205 185 234 201 143 147 205 294 281 267 209 192 179 177 176 175 181 185 190 192 194 198 200 201 198 196 195 196 197 195 194 194 195 194 193 194 192 190 187 182 177 174 170 166 162 159 156 153 150 147 145 144 142 140 139 138 134 133 130 127 123 120 119 115 112 107 103 102 99 96 95 94 94 93 93 89 84
167 123 100 124 306 311 223 228 237 196 254 252 244 182 181 249 162 151 168 188 232 219 177 174 155 178 195 182 228 246 200 186 176 175 175 177 183 187 191 193 197 200 203 206 204 202 200 200 200 198 198 197 199 197 196 197 194 193 189 184 180 174 170 167 164 161 158 155 152 150 149 147 145 144 143 141 139 138 138 137 134 134 131 128 126 120 115 110 107 104 101 99 97 97 94 92 89
128 102 76 6 261 286 227 216 204 174 255 241 263 64 167 280 164 157 217 171 247 247 133 191 196 199 173 178 240 252 183 176 173 174 174 178 183 186 191 194 199 203 206 208 207 206 204 204 204 202 202 200 202 201 200 198 195 194 190 187 182 176 173 170 167 164 160 157 155 154 153 152 150 150 150 150 148 147 147 146 144 143 141 141 139 136 134 129 124 118 111 107 101 98 92 91 89
62 85 83 294 223 224 216 211 211 199 265 266 291 274 174 280 293 189 272 104 170 243 220 224 217 82 175 221 289 186 165 168 170 171 172 175 179 182 188 193 198 203 207 210 210 209 207 207 207 205 204 203 204 203 203 200 197 194 191 188 183 179 176 173 171 167 164 161 160 158 157 156 156 156 156 156 154 153 152 149 144 141 140 138 135 133 132 127 124 118 114 110 103 100 94 90 86
62 99 157 245 204 211 197 197 206 176 273 266 263 224 180 248 274 219 335 341 284 260 267 263 285 20 18 302 146 150 158 164 168 169 171 173 176 180 187 192 196 202 206 209 212 210 209 210 209 207 206 205 204 205 204 200 198 195 191 188 185 183 180 177 175 171 168 165 164 163 161 160 158 158 157 155 153 150 147 142 137 134 131 128 125 123 119 116 112 107 102 99 95 93 91 89 83
129 135 178 234 206 218 204 203 227 205 261 256 261 240 185 221 227 119 243 263 271 241 265 278 267 281 8 81 136 150 157 163 170 172 174 176 181 185 189 194 197 202 205 208 211 211 211 211 210 209 208 206 205 205 203 200 199 196 193 190 187 185 183 181 178 174 172 169 168 166 163 161 159 157 154 152 149 143 137 133 130 126 123 119 117 115 112 108 103 100 95 91 89 86 83 82 77
181 147 216 245 216 237 248 238 247 238 236 247 271 246 187 235 216 136 221 254 253 220 237 224 239 244 213 147 148 155 160 167 175 178 182 186 189 191 192 194 198 204 207 209 210 209 210 210 210 209 209 207 205 204 201 199 198 196 194 192 190 188 186 184 181 177 175 173 170 167 163 159 157 155 152 148 142 135 130 127 125 122 118 113 110 108 105 101 97 94 92 90 87 84 82 78 76
187 164 211 240 203 244 259 244 244 238 214 209 242 258 253 251 197 191 184 251 263 229 228 209 221 230 192 173 173 166 167 174 181 185 190 193 196 199 200 200 202 206 207 208 209 209 209 209 210 208 208 208 206 204 201 199 197 196 195 193 192 190 188 186 183 180 177 175 171 167 162 158 158 153 148 142 135 132 130 127 123 119 114 108 103 100 98 95 92 89 88 88 85 82 80 77 75
173 218 225 239 201 247 263 250 238 223 213 241 249 265 261 238 191 216 184 227 251 221 219 213 220 225 182 177 180 175 179 181 187 193 196 198 201 204 207 207 207 208 208 209 210 210 210 209 209 208 207 208 207 205 202 200 197 196 195 194 193 191 189 187 184 181 179 177 173 168 163 159 157 150 145 141 137 136 134 129 123 118 110 101 95 91 90 89 86 85 83 82 81 80 77 73 69
220 253 240 243 224 241 265 266 255 226 247 260 254 255 256 318 273 234 198 231 244 217 193 199 220 220 180 170 172 178 189 190 194 198 199 201 203 206 207 208 208 208 209 210 210 210 210 209 209 209 207 207 207 205 203 201 199 198 196 195 194 191 190 189 185 183 181 177 173 170 166 162 157 153 150 147 145 143 139 132 125 118 109 95 88 82 80 81 78 77 78 78 78 77 74 70 66
219 256 255 248 227 234 255 266 280 276 250 251 276 304 263 249 270 295 236 242 244 238 212 198 220 202 163 160 175 187 193 194 201 203 203 203 205 208 208 208 209 209 209 211 210 209 209 208 208 209 209 208 206 204 203 202 200 199 198 196 195 192 191 190 186 183 181 177 174 172 170 165 162 159 157 154 152 149 143 136 129 121 111 94 85 79 73 74 73 72 72 73 74 71 68 65 59
216 238 252 254 232 239 258 270 274 270 255 252 303 282 253 235 268 312 266 259 250 233 232 222 192 143 158 176 188 193 197 201 208 208 209 211 211 213 212 211 211 210 212 212 210 209 210 208 207 209 210 209 206 204 202 202 201 200 198 198 195 194 193 191 187 184 182 179 176 175 173 171 168 166 163 161 158 155 148 141 133 125 113 96 86 77 72 70 68 68 66 67 65 62 59 56 51
217 224 251 266 271 273 277 276 264 260 253 196 241 269 263 246 281 283 265 264 253 216 224 225 186 168 186 191 193 195 201 205 210 211 213 216 216 217 217 215 213 213 216 214 211 211 210 208 208 210 210 210 208 204 203 202 202 200 200 199 196 196 195 192 189 187 185 183 181 178 177 176 174 172 169 166 165 163 155 148 143 133 118 103 92 76 70 64 60 58 54 55 54 51 47 43 42
208 221 266 259 272 285 264 261 266 264 253 195 211 264 274 280 221 268 268 263 168 198 226 229 206 215 212 200 203 200 203 209 211 210 212 216 215 219 219 216 216 217 216 214 214 212 209 208 209 210 210 210 209 206 204 203 203 202 202 200 198 197 196 193 191 190 188 187 185 181 180 179 178 176 174 172 171 170 163 157 154 143 130 115 98 79 71 58 52 46 37 39 39 40 36 32 30
225 254 304 278 289 296 261 256 266 256 262 207 189 259 283 316 177 248 262 259 113 197 236 240 224 231 225 212 212 203 211 217 212 206 207 211 213 216 217 216 217 216 216 216 216 212 209 209 209 209 209 209 209 207 205 204 204 204 203 202 200 200 198 196 194 192 191 190 189 186 183 182 182 181 180 179 178 177 172 167 163 154 145 128 109 88 72 57 47 36 30 31 29 31 26 23 19
286 20 323 291 328 307 272 260 242 196 231 185 147 269 284 245 224 241 255 261 356 265 259 252 238 239 236 223 216 211 219 218 210 208 213 215 215 215 216 219 217 214 217 218 215 211 211 210 209 208 208 208 209 209 207 206 206 204 205 204 203 203 200 199 197 195 194 193 191 189 187 185 186 186 184 184 185 184 180 175 173 164 155 144 129 105 78 63 45 34 31 26 25 22 11 11 10
296 17 327 291 338 301 273 247 201 198 204 162 132 261 270 250 245 245 256 265 272 272 266 258 247 245 242 233 224 222 223 215 209 214 218 219 220 218 219 222 218 215 216 214 213 213 213 210 208 207 207 209 210 210 209 207 207 206 206 207 205 205 203 201 200 197 197 196 194 193 190 189 189 190 189 189 190 190 185 179 177 172 165 159 150 140 118 85 48 38 28 19 16 9 4 1 357
297 304 254 288 300 273 280 91 130 219 219 165 145 224 256 262 263 255 255 243 215 248 261 259 253 248 245 240 233 233 227 216 219 221 221 222 222 220 222 223 219 216 214 212 215 215 212 209 208 207 207 209 209 209 210 208 208 207 207 208 206 206 205 204 202 199 199 198 198 196 193 192 192 192 193 194 194 193 190 184 181 178 173 171 169 167 162 145 66 31 19 13 4 3 3 357 351
341 255 269 282 207 263 296 296 179 214 249 158 157 220 252 260 266 263 253 201 195 232 254 258 258 255 250 246 238 241 238 224 227 229 228 227 225 222 222 223 219 216 214 214 216 212 210 209 208 207 207 208 208 209 210 209 209 209 209 209 208 207 207 207 205 202 202 201 200 199 196 195 195 196 195 197 198 196 193 188 184 182 179 178 179 177 176 173 121 16 5 0 356 358 356 351 347
319 210 244 258 228 259 305 296 223 203 212 180 204 225 252 258 262 269 271 208 203 227 252 256 257 258 253 249 241 243 247 239 235 234 233 230 226 224 221 221 220 218 217 215 213 209 208 208 207 207 207 208 208 208 208 209 209 210 209 209 209 208 208 209 208 205 203 203 203 201 200 198 197 198 198 199 201 199 196 191 188 185 183 183 181 180 181 171 163 348 0 353 354 357 349 343 342
280 222 230 250 244 239 277 293 284 185 178 210 228 228 240 253 257 270 271 201 194 222 249 255 256 257 253 252 250 248 246 242 241 235 233 230 225 224 221 221 221 219 217 214 212 211 208 207 206 206 207 207 206 206 207 208 209 209 209 209 209 209 210 211 210 208 206 204 204 203 202 200 199 199 200 201 200 199 197 194 192 187 185 185 182 182 182 178 181 213 343 352 354 354 346 340 339
235 224 230 254 247 238 246 269 280 161 211 221 229 238 243 255 262 267 263 236 235 244 246 257 262 260 256 255 253 250 247 244 245 241 237 231 223 221 220 219 220 217 215 213 212 210 207 205 205 205 205 205 204 205 205 206 207 208 208 208 209 210 210 212 212 211 209 207 206 205 205 203 201 200 201 202 200 199 197 195 194 189 187 186 184 184 185 190 195 203 286 0 359 351 346 342 341
229 231 236 249 251 248 242 255 250 202 251 236 227 246 244 252 258 260 262 258 260 261 258 261 262 262 261 255 252 250 248 247 246 245 244 236 223 220 218 217 217 215 213 211 208 207 205 203 202 202 203 203 201 200 201 202 202 204 204 205 207 210 210 211 212 213 212 211 208 207 207 207 204 202 202 203 201 201 199 197 194 191 190 189 189 189 189 195 198 202 195 95 12 2 352 348 349
252 256 255 252 257 264 253 262 264 204 233 238 224 246 249 247 253 254 259 261 261 264 263 259 253 254 257 254 253 250 246 248 252 254 250 239 227 220 217 215 212 211 210 207 204 203 203 201 200 200 200 199 198 197 198 199 199 199 200 203 206 208 208 209 211 213 214 214 212 210 209 209 207 205 204 203 202 201 199 198 196 194 192 191 191 189 190 194 194 198 185 151 61 26 359 353 353
257 250 260 264 255 265 258 260 272 221 205 249 231 249 255 247 251 255 258 257 255 257 257 259 255 248 251 252 253 252 249 252 259 261 249 232 225 217 212 209 205 204 204 204 204 203 202 201 200 200 198 197 198 199 198 199 201 200 200 203 205 205 206 208 210 212 214 215 214 212 211 210 209 207 206 204 202 202 200 199 198 197 195 191 190 189 190 194 192 195 191 178 160 29 7 0 353
243 243 260 267 254 272 268 250 265 244 183 259 249 252 257 249 251 253 255 254 250 252 250 256 258 250 249 247 248 252 254 257 257 258 249 225 219 213 207 205 204 205 204 203 204 202 199 199 200 199 197 197 199 200 200 201 203 203 203 204 204 204 207 209 211 213 214 215 215 214 213 212 211 208 206 205 204 203 202 202 200 198 197 196 195 192 191 193 194 196 196 195 178 79 25 9 356
223 224 245 261 249 262 268 243 266 262 199 268 271 266 263 253 258 254 251 253 253 255 253 255 259 251 249 249 246 247 251 255 254 255 251 223 213 209 204 204 204 203 202 201 201 199 197 199 199 197 197 197 199 200 201 202 201 201 203 205 204 204 208 209 211 213 214 215 215 215 215 213 211 209 207 206 205 204 204 204 202 200 200 199 200 198 196 196 197 199 201 203 191 158 120 79 6
221 209 223 249 246 243 254 270 305 302 274 284 287 285 275 228 239 248 245 251 254 256 255 256 258 250 249 257 254 245 245 250 251 254 251 220 207 208 205 205 202 200 201 201 200 199 198 198 198 197 197 197 199 200 199 199 197 196 198 199 200 202 206 205 207 211 212 213 215 215 215 214 212 211 209 207 206 205 204 203 204 204 201 201 201 201 200 197 197 202 205 207 206 195 172 156 77
248 209 215 236 244 247 258 281 319 316 291 304 312 294 288 197 208 237 242 246 248 250 250 251 256 252 245 254 258 250 245 246 248 255 253 225 208 207 205 204 200 201 204 204 202 200 198 198 196 196 197 197 199 199 197 196 195 194 192 190 191 195 199 202 205 208 207 210 213 213 213 213 213 213 211 208 207 206 204 204 205 205 204 203 202 201 199 198 199 202 203 205 209 210 200 181 170
271 223 212 230 241 248 256 268 295 268 259 294 105 243 286 262 199 220 230 237 243 247 251 249 251 252 242 242 255 258 253 249 243 249 251 231 208 200 205 204 201 204 207 205 202 199 198 197 195 195 196 197 197 197 196 196 195 195 196 196 196 196 200 205 208 209 208 209 210 212 212 213 214 215 213 211 208 206 205 205 206 206 206 204 202 201 200 200 199 199 202 204 207 209 208 195 184
265 217 189 209 225 233 229 223 233 236 275 301 162 148 274 282 237 198 211 219 238 248 251 252 250 248 247 244 249 253 255 253 240 241 244 231 212 202 205 205 204 207 206 200 198 198 197 196 195 196 196 197 197 197 197 197 197 198 199 201 202 204 206 209 209 208 210 210 209 211 212 212 214 215 215 213 210 207 206 206 206 205 206 204 203 203 201 199 196 197 200 201 206 208 210 209 194
253 155 151 168 188 203 163 170 217 272 346 295 222 142 257 279 258 181 201 205 224 241 240 248 252 247 247 248 249 250 254 254 239 234 236 226 212 208 208 206 206 206 201 198 198 197 196 195 195 195 197 198 198 198 198 199 200 200 201 202 205 209 210 211 209 208 209 209 208 210 211 211 213 214 216 215 212 209 207 207 206 206 206 205 204 202 199 199 198 200 202 201 206 205 206 217 211
229 110 97 76 82 84 94 127 139 19 307 253 204 163 229 281 276 144 161 199 219 236 236 246 258 259 254 251 255 257 258 256 237 232 235 224 214 213 209 205 203 202 200 199 197 194 193 194 194 196 198 199 198 199 200 200 202 202 203 204 207 209 208 209 209 207 207 207 207 208 209 210 211 212 213 215 214 212 209 208 208 207 207 205 204 202 199 200 199 200 203 204 207 205 205 213 217
126 95 59 32 20 28 54 43 67 5 279 235 189 184 190 273 286 138 173 215 211 223 235 252 260 262 261 254 256 257 255 255 241 233 240 227 216 211 203 199 198 197 197 196 194 193 193 193 194 196 198 198 199 200 201 202 202 204 206 208 208 208 206 204 205 204 204 204 205 206 207 209 210 211 211 212 214 214 211 209 209 208 207 206 206 204 202 202 200 199 201 203 205 206 205 207 214
105 95 76 30 333 6 24 356 57 212 266 225 188 186 184 235 258 178 236 256 214 206 220 237 244 252 259 257 257 254 253 259 252 233 230 212 196 195 193 194 192 190 191 192 192 192 192 193 194 195 198 200 201 201 202 203 204 206 209 210 211 210 207 205 205 205 204 203 204 205 205 207 208 209 210 211 212 213 211 209 208 207 206 206 206 205 204 202 200 199 201 204 206 205 204 208 215
109 114 122 126 299 339 348 308 116 215 258 234 185 177 207 242 245 220 260 270 241 215 211 222 233 244 253 258 259 259 264 270 256 229 215 199 193 191 190 191 188 188 191 191 191 190 191 194 194 196 199 201 201 202 203 204 206 209 210 211 212 212 210 210 209 208 207 206 205 204 203 204 205 206 208 210 211 211 211 210 208 207 206 206 206 204 203 201 200 202 203 206 208 207 208 213 218
160 156 154 167 210 237 255 264 270 257 265 255 171 164 245 276 262 216 233 250 248 232 222 225 229 238 247 256 266 274 280 273 252 226 208 204 204 198 193 192 190 192 193 191 191 191 192 194 196 199 201 201 202 204 204 205 208 211 211 211 212 212 212 213 212 211 210 208 206 205 206 206 206 207 209 211 212 211 211 211 210 208 207 206 205 203 202 201 202 204 206 208 209 209 211 216 223
185 161 144 177 188 179 205 230 249 260 278 297 186 175 223 274 275 220 223 251 269 251 243 252 257 260 264 272 281 284 278 271 259 218 211 216 210 201 197 197 196 195 192 191 192 193 194 196 199 200 202 202 203 205 206 207 211 212 212 212 213 213 214 215 215 214 212 210 208 207 208 208 208 210 211 211 212 211 211 211 210 209 207 205 204 203 202 202 203 204 206 208 209 210 214 220 226
220 120 120 215 202 178 219 248 236 227 297 290 226 216 234 235 255 249 241 261 272 274 283 289 273 260 259 265 268 267 267 277 294 231 232 234 218 205 199 199 199 194 191 193 195 195 197 200 201 203 204 204 204 206 207 210 212 213 212 213 214 214 214 215 216 216 214 212 211 209 210 210 210 211 211 211 211 211 211 210 210 210 208 205 204 203 203 202 203 204 205 207 209 211 215 220 224
184 135 183 217 158 159 222 272 288 109 260 262 223 239 275 304 279 259 227 248 260 280 280 260 254 257 258 261 263 264 271 291 309 258 246 244 226 218 208 200 195 191 193 197 199 200 202 203 203 204 205 204 206 208 210 212 213 213 214 215 215 215 215 216 217 216 215 213 212 212 212 211 211 211 211 211 211 211 210 210 209 209 207 206 204 203 203 203 204 204 206 209 209 210 214 217 221
128 177 210 161 76 133 176 244 317 251 251 260 254 257 270 295 280 300 27 324 285 281 277 271 280 285 279 273 272 274 280 298 298 268 257 252 232 226 217 205 201 198 198 200 203 204 205 206 206 206 205 206 208 210 210 211 212 212 214 215 216 217 217 218 218 217 215 212 211 211 211 211 211 211 211 211 210 210 209 209 209 208 207 205 204 203 203 203 203 205 207 209 209 209 212 215 218
136 204 220 108 148 234 162 171 220 234 244 254 263 269 268 241 250 277 310 291 281 284 311 321 300 289 285 286 287 290 293 295 284 266 257 250 234 229 220 210 207 206 204 204 205 204 206 209 210 209 209 210 211 212 212 213 213 213 215 216 216 217 218 219 218 217 216 214 213 211 210 212 212 211 210 210 209 209 208 208 208 208 206 204 203 203 202 201 203 204 205 206 206 208 212 215 218
131 257 330 74 179 192 181 185 181 225 244 249 256 267 266 242 227 213 232 238 242 279 331 327 298 292 285 281 283 288 289 285 279 270 260 250 239 237 230 219 211 207 207 206 204 205 207 210 211 212 213 213 212 214 214 215 215 215 217 217 217 217 217 218 217 216 216 216 215 212 210 211 211 210 210 210 209 209 208 207 207 206 205 203 202 202 201 201 203 205 207 207 206 208 212 215 215
193 219 246 248 225 189 241 237 171 222 247 248 248 252 257 261 197 169 205 211 192 303 333 313 299 299 287 277 272 271 279 286 284 275 264 255 245 238 237 236 225 212 210 207 205 208 209 211 212 213 213 212 212 214 215 217 217 217 217 216 217 217 216 216 215 215 216 217 216 213 211 210 210 210 210 209 209 209 208 206 205 205 204 203 202 200 200 202 203 206 207 207 207 209 212 212 212
185 198 211 214 221 235 264 253 220 210 245 246 250 251 254 272 251 170 192 251 280 312 307 283 275 273 270 271 267 263 271 278 276 268 259 254 249 236 225 230 227 216 211 208 207 209 209 211 214 215 214 213 214 215 216 218 217 217 217 217 217 216 214 213 213 214 216 217 216 214 211 208 208 209 209 209 209 207 206 205 203 203 203 203 202 200 201 202 204 206 205 205 206 208 210 210 209
Height
817 818 817 817 816 816 818 819 835 839 841 852 847 845 832 820 822 820 820 818 817 816 812 812 810 810 811 813 814 816 818 819 821 831 833 821 820 823 823 825 825 827 829 830 832 833 834 835 836 836 837 837 838 839 839 839 840 840 841 841 841 841 841 841 841 841 841 841 842 841 841 842 842 841 841 841 841 841 842 842 842 842 842 842 842 842 842 842 842 842 841 841 841 841 841 841 841
817 818 817 817 816 818 822 823 842 849 848 853 845 840 828 819 822 818 817 817 815 813 811 812 811 811 812 812 813 816 817 819 818 821 822 821 823 822 823 824 825 826 827 829 831 832 833 834 835 835 835 836 837 838 838 838 839 840 840 840 841 841 841 841 841 841 841 841 841 842 842 842 842 841 841 841 841 841 842 842 842 842 842 842 842 842 842 842 842 842 842 841 841 841 841 841 840
817 818 817 817 817 818 824 828 844 855 855 854 841 832 826 820 819 815 815 814 812 811 812 813 812 813 814 815 815 816 817 820 820 820 822 821 820 820 822 823 824 826 827 828 829 831 832 832 833 834 835 836 836 837 837 838 838 839 840 840 840 840 840 841 841 841 841 841 842 842 842 842 842 842 842 841 841 841 841 841 842 842 842 842 842 842 842 842 842 842 841 841 841 841 840 840 840
818 817 817 817 820 822 829 836 844 852 855 855 842 826 822 819 815 816 815 813 813 812 812 812 813 813 814 816 815 816 816 817 816 816 819 817 816 817 819 822 823 825 826 827 828 829 830 831 832 833 834 835 835 835 836 836 837 838 839 839 840 840 840 840 840 840 841 841 842 842 842 842 842 842 842 841 841 841 841 841 841 842 842 842 842 842 842 842 842 841 841 841 840 840 840 840 840
818 818 818 816 823 826 831 841 847 851 847 845 838 823 818 816 815 817 815 814 814 813 811 811 813 813 813 814 814 814 814 813 813 813 813 813 815 817 818 820 822 823 824 826 827 828 829 830 831 832 833 833 834 834 835 835 836 837 838 838 839 839 839 839 839 839 840 840 840 841 841 841 841 841 841 841 841 841 841 841 842 842 842 842 842 842 842 841 841 841 840 840 840 840 839 839 839
818 818 817 817 822 825 833 844 847 848 836 832 831 820 815 814 816 816 815 815 812 812 811 810 811 812 813 813 813 812 811 811 811 811 811 811 815 817 818 819 821 822 823 825 826 827 828 828 829 830 831 832 832 833 834 834 835 836 836 837 837 838 838 838 838 838 839 839 839 840 840 840 841 841 841 841 841 841 841 841 841 841 842 841 841 841 841 841 840 840 840 840 839 839 839 839 839
817 819 820 821 825 827 839 845 843 844 830 826 826 816 813 813 817 817 815 815 812 811 810 809 808 810 813 812 812 811 810 810 809 810 809 811 814 816 817 818 820 821 822 824 825 826 827 827 828 829 830 830 831 832 832 833 834 834 835 836 836 836 837 837 837 838 838 838 839 839 839 840 840 840 840 841 841 841 841 841 841 841 841 841 841 840 840 840 840 839 839 839 839 838 838 838 838
817 821 824 827 833 835 843 844 841 841 829 822 820 813 810 811 816 816 814 814 812 811 809 809 808 809 811 810 811 810 809 809 808 809 809 811 813 815 816 817 818 820 821 822 824 825 826 827 827 828 829 829 830 831 831 832 833 834 835 835 835 836 836 837 837 837 837 838 838 838 838 839 839 840 840 840 840 840 840 840 840 840 840 840 840 840 840 839 839 839 838 838 838 838 838 838 837
817 821 826 830 838 842 845 844 839 836 827 821 816 811 809 811 815 814 813 814 812 811 809 808 807 810 811 810 810 810 809 808 808 809 810 811 812 814 815 816 817 818 820 822 823 824 825 826 827 828 828 829 829 830 831 832 833 833 834 834 835 835 836 836 836 836 837 837 837 838 838 838 839 839 840 840 840 840 840 840 840 840 840 840 839 839 839 839 839 838 838 838 838 838 838 837 837
820 822 828 834 841 846 846 844 838 831 823 818 814 809 808 811 814 813 813 812 810 809 808 808 808 809 811 810 809 808 807 807 807 808 810 811 813 814 815 816 817 818 819 821 823 824 825 826 827 827 827 828 829 830 830 831 832 832 833 834 834 835 835 835 836 836 836 836 837 837 838 838 838 839 839 839 840 840 840 840 840 840 839 839 839 839 839 839 839 838 838 838 838 838 838 837 837
825 826 827 837 844 847 845 841 835 827 820 817 812 806 807 810 813 813 813 811 809 809 808 810 809 808 810 809 807 806 806 806 806 806 808 811 813 814 814 816 818 819 820 821 823 824 825 825 826 827 827 828 828 829 829 830 831 832 832 833 833 834 834 835 835 835 836 836 836 837 837 838 838 838 839 839 839 839 839 839 839 839 839 839 839 839 839 839 839 838 838 838 838 838 838 837 837
828 830 830 840 845 843 842 839 833 826 821 818 810 804 806 810 812 810 810 809 808 810 808 807 805 804 809 808 806 807 806 805 805 806 807 809 811 813 814 815 817 819 820 821 822 823 824 825 825 826 827 827 828 828 828 829 830 830 831 832 832 833 833 834 834 834 835 835 836 837 837 837 838 838 838 839 839 839 839 839 839 839 839 839 839 839 839 839 839 839 839 838 838 838 838 837 837
827 832 833 840 843 840 840 839 832 828 823 814 807 803 805 809 808 805 806 808 808 810 805 802 800 801 807 806 806 809 806 804 805 807 807 809 811 812 814 815 817 818 819 820 821 822 823 823 824 825 826 826 826 827 828 828 829 829 830 831 831 832 832 832 833 833 834 835 835 836 836 837 837 838 838 838 839 839 839 839 839 839 839 839 839 840 840 839 839 839 839 839 838 838 838 838 837
825 830 833 838 843 839 836 834 827 829 822 808 805 803 804 804 803 802 804 807 807 805 800 797 799 801 805 805 805 805 803 803 805 807 808 810 811 812 814 815 816 818 819 820 820 821 821 822 823 824 824 825 825 826 827 827 828 828 829 830 830 831 831 832 832 833 833 834 835 835 836 836 837 837 838 838 838 839 839 839 839 839 839 839 839 840 840 840 840 839 839 839 838 838 838 838 837
824 827 832 838 842 838 834 830 824 827 820 807 805 803 803 801 800 802 802 803 802 799 798 798 799 801 803 801 799 796 796 800 804 807 808 810 811 812 814 815 816 817 818 819 820 820 821 822 822 823 823 824 825 825 826 826 827 827 828 829 829 830 830 831 831 832 833 833 834 835 835 836 837 837 838 838 838 839 839 839 839 839 839 839 839 839 840 840 839 839 839 839 838 838 838 837 837
823 826 834 839 840 839 834 828 825 826 817 806 806 803 804 801 799 802 799 799 799 797 798 798 797 797 797 796 793 790 792 799 804 806 809 811 812 813 814 815 816 816 817 818 818 819 819 821 821 822 822 823 824 824 825 825 826 826 827 828 829 829 830 830 831 831 832 833 834 834 835 836 836 837 838 838 839 839 839 839 839 839 839 839 839 839 840 840 840 839 839 839 838 838 838 837 837
822 826 837 840 840 839 830 825 822 820 811 806 806 804 805 803 800 799 797 798 798 798 798 796 795 794 794 793 792 790 793 798 803 806 808 810 811 813 814 814 815 815 815 816 816 817 818 819 819 820 821 822 822 823 824 824 825 826 827 827 828 829 829 829 830 831 831 832 833 834 835 836 836 837 838 838 839 839 840 840 840 840 840 840 840 840 840 840 840 840 839 839 838 838 838 837 837
825 832 839 838 838 833 821 817 814 813 809 805 804 803 805 803 800 798 798 799 798 799 798 795 794 794 795 794 793 792 794 798 801 804 806 808 810 811 811 811 811 811 812 813 814 815 815 816 817 819 819 820 821 822 823 823 824 825 825 826 827 828 828 829 829 830 830 831 832 833 834 835 836 837 838 838 839 839 840 840 840 840 840 840 840 840 840 839 839 839 839 838 838 838 837 837 837
826 835 839 834 829 822 813 811 809 809 808 803 803 803 804 802 799 799 799 799 799 800 797 796 795 794 795 795 795 794 795 797 799 801 802 804 805 805 806 807 808 808 808 809 809 811 812 813 815 816 817 818 819 820 821 822 823 823 824 825 826 827 827 828 828 829 830 830 831 832 834 834 835 836 837 838 838 839 839 840 840 840 840 840 840 839 839 839 839 838 838 838 837 837 837 836 836
825 832 837 827 819 815 811 809 807 806 805 804 802 803 804 801 799 799 799 799 798 798 794 795 795 791 792 796 796 796 796 798 798 799 800 800 800 800 801 803 803 803 803 803 805 807 809 810 811 813 814 816 817 818 819 820 821 822 823 824 825 826 826 827 827 828 829 829 830 831 832 833 834 835 836 837 838 838 839 839 839 840 840 839 839 839 839 838 838 837 837 837 836 836 836 836 836
825 827 828 819 816 815 807 804 805 803 804 804 802 804 803 799 799 798 797 800 797 792 788 788 788 785 789 796 797 796 796 797 798 798 798 798 799 799 798 797 797 798 800 802 803 804 805 807 808 810 812 813 814 815 817 818 819 821 821 822 823 824 825 825 826 827 827 828 829 830 831 832 833 834 835 835 836 837 838 838 839 839 839 839 839 838 838 838 837 837 836 836 836 835 835 835 835
823 821 817 813 816 814 803 802 804 802 803 803 802 803 800 797 798 795 796 797 788 782 782 782 781 780 785 791 793 795 796 796 796 796 796 796 795 795 795 795 797 798 799 800 799 800 802 804 805 807 809 810 812 813 814 816 817 818 819 820 821 822 823 824 825 825 826 827 827 828 828 830 831 832 833 833 834 835 836 837 837 838 838 838 838 838 837 837 837 836 836 835 835 835 835 835 834
821 817 813 812 814 811 803 801 802 802 803 802 801 800 797 798 796 792 792 787 776 774 776 777 777 777 780 785 790 792 793 793 792 791 790 790 791 790 790 791 792 793 794 794 795 797 798 801 803 804 806 808 809 811 812 814 815 816 817 818 819 820 821 822 823 823 824 825 825 826 826 827 828 829 831 832 833 834 835 835 836 836 837 837 837 837 836 836 836 835 835 835 834 834 834 834 834
820 817 811 809 810 808 803 801 802 803 803 800 801 799 797 798 795 792 786 775 771 773 774 774 774 774 778 783 786 787 786 788 786 784 784 783 783 782 784 786 787 789 790 790 792 794 795 797 799 801 803 805 806 808 810 811 812 814 815 816 817 818 819 820 820 821 822 822 823 824 825 825 827 828 829 830 832 833 833 834 834 835 835 835 835 836 835 835 835 835 835 834 834 834 834 834 834
819 815 810 808 807 804 801 802 802 801 801 800 801 798 795 795 796 792 778 767 769 772 773 773 774 775 777 779 781 783 783 783 782 781 782 780 780 782 784 785 786 788 786 787 789 790 791 794 796 798 799 802 804 806 807 809 810 812 813 813 815 816 817 818 819 819 820 820 821 822 823 824 825 826 827 829 830 831 832 832 833 833 833 834 834 834 834 834 834 834 834 834 834 834 833 833 833
813 810 809 807 805 802 801 801 798 799 799 799 801 796 793 794 796 787 767 762 766 768 770 770 772 774 774 775 776 777 778 778 778 778 778 778 781 783 782 783 784 782 781 783 786 786 788 791 792 794 796 799 801 803 804 806 808 809 810 811 813 814 815 816 817 818 818 819 820 821 822 823 824 825 826 827 828 829 830 831 832 832 832 833 833 833 833 833 834 834 833 833 833 833 833 833 833
808 808 808 805 805 802 800 798 796 798 798 797 799 795 790 793 798 784 760 759 764 765 767 767 770 771 769 771 772 772 773 772 771 773 776 778 780 778 777 779 778 776 779 781 781 782 785 787 789 791 793 796 798 800 801 803 805 806 807 809 810 812 813 815 815 816 817 817 818 819 820 821 823 823 824 825 826 827 828 829 830 831 831 832 832 832 832 832 832 832 832 832 832 832 832 832 832
808 808 807 803 804 802 797 797 795 797 795 792 795 795 791 794 797 781 758 758 765 765 766 766 768 766 765 767 767 769 769 765 767 771 772 772 770 769 770 770 770 772 775 774 776 780 782 783 785 788 790 793 795 796 799 800 802 804 805 807 808 809 811 812 813 814 815 815 816 817 818 819 821 821 823 823 824 826 827 828 828 829 830 830 831 831 831 831 831 831 832 832 832 832 832 832 832
807 808 811 805 805 802 790 791 793 794 794 788 794 799 793 790 785 769 757 759 765 766 765 764 765 763 762 763 764 765 763 762 766 767 764 761 760 761 762 761 763 767 768 769 774 777 778 780 782 785 788 789 791 793 795 797 799 801 803 804 806 807 809 810 811 812 812 814 814 815 817 817 819 820 821 822 823 824 825 826 826 827 828 828 829 829 829 830 830 830 831 831 831 831 831 832 832
808 810 813 809 813 805 785 786 791 791 793 786 792 803 791 778 771 761 758 761 765 767 763 761 761 760 759 759 760 760 758 760 760 758 755 754 755 756 756 756 759 762 764 769 771 772 773 776 779 782 784 786 787 790 792 795 796 799 800 802 804 805 806 807 808 810 811 811 813 814 815 816 817 818 819 820 821 822 823 824 825 825 826 827 827 828 828 829 829 829 830 830 830 831 831 831 831
811 814 815 817 822 806 783 787 792 790 792 785 790 804 792 771 762 757 757 761 765 765 760 758 757 756 756 756 756 755 753 754 752 750 750 749 750 752 752 753 757 759 762 765 764 766 769 772 775 777 780 782 784 787 789 791 793 795 797 799 801 802 803 805 806 808 809 809 811 812 813 814 815 816 817 818 819 820 821 822 823 823 824 825 826 826 827 827 828 828 829 829 829 830 830 830 830
815 819 818 820 822 808 788 786 789 787 789 789 791 799 791 772 759 754 756 760 762 762 757 754 754 753 754 753 752 750 748 748 748 746 746 746 747 748 749 750 753 755 757 758 759 763 767 769 771 773 776 778 780 783 785 788 790 792 794 796 798 800 801 802 804 805 807 807 808 810 811 812 813 814 816 816 817 818 819 820 821 822 823 823 824 825 826 826 827 827 828 828 828 828 829 829 829
818 821 820 817 817 815 801 785 782 783 785 789 789 789 784 770 757 753 756 758 759 760 755 752 752 751 751 750 748 747 745 745 744 742 740 741 742 743 745 746 748 749 750 753 756 759 762 764 767 769 771 774 776 780 783 785 788 790 792 794 796 798 799 800 802 803 804 805 806 807 809 810 811 813 814 815 816 817 818 819 819 820 821 822 823 823 824 825 826 826 826 826 827 827 828 828 829
819 821 821 817 814 815 807 787 779 783 784 786 786 785 778 763 754 753 755 757 758 758 754 750 750 749 747 746 745 744 742 741 738 734 733 733 736 738 739 741 743 745 747 749 752 754 756 759 762 765 768 771 774 777 780 783 786 788 791 793 794 796 797 798 800 801 802 803 804 805 806 808 809 810 812 813 814 815 816 817 818 819 819 820 821 822 823 824 824 825 825 825 826 826 827 827 827
812 814 815 816 812 811 809 795 782 782 784 784 786 787 778 766 758 755 753 755 756 754 751 750 748 746 745 744 743 740 739 737 730 725 725 727 730 733 735 737 739 741 743 745 748 751 753 756 759 762 765 768 772 775 779 782 785 787 789 792 794 795 796 797 798 798 800 801 802 803 804 805 807 808 809 810 812 813 814 815 816 817 818 818 819 820 821 822 823 823 823 824 824 825 826 826 826
804 806 808 810 808 805 802 792 781 782 785 785 785 781 774 769 763 756 752 753 754 750 749 750 747 744 742 741 740 737 736 731 722 719 721 724 726 728 730 733 735 737 740 742 745 748 750 753 756 759 762 765 769 773 777 780 782 785 787 790 791 791 793 794 795 796 797 798 800 801 802 803 804 806 807 808 809 811 812 813 814 815 816 817 818 819 820 821 821 822 822 823 823 825 825 825 825
805 808 808 807 807 802 794 786 779 781 785 781 777 772 766 764 759 752 750 751 751 747 746 745 743 741 739 737 735 732 731 723 716 717 719 721 722 724 727 729 732 735 737 739 741 743 745 748 751 753 757 761 764 767 770 773 776 779 782 783 784 786 789 791 792 794 795 796 797 798 799 800 801 803 804 806 807 808 810 811 812 813 814 815 816 818 819 819 820 820 821 822 822 824 824 824 825
805 808 809 807 808 799 788 784 778 779 785 777 772 770 764 761 756 750 749 750 748 742 741 738 734 736 735 733 730 726 723 717 715 716 715 717 719 720 723 725 727 729 731 734 735 737 740 743 745 748 752 756 758 760 763 766 768 771 773 775 778 782 784 786 788 789 791 793 795 796 797 798 799 800 802 803 805 806 807 809 810 811 812 814 815 816 817 818 818 819 819 820 821 822 823 823 824
807 810 812 810 807 796 784 782 777 779 785 775 771 770 760 757 754 750 748 744 739 735 734 731 727 730 730 727 725 721 718 715 713 712 711 713 715 716 719 720 721 723 725 727 729 732 736 738 741 744 747 750 753 757 759 762 765 768 771 773 777 780 782 784 786 788 790 791 792 794 795 796 797 798 800 801 803 804 805 807 808 809 811 812 813 814 815 816 817 817 818 818 819 820 821 823 823
807 808 811 807 801 797 787 779 774 778 782 775 773 770 758 755 753 750 746 737 732 732 730 728 724 724 724 719 718 717 714 712 709 706 706 709 712 713 714 715 716 720 722 724 726 729 731 733 736 739 743 746 750 753 756 760 764 768 771 774 777 780 781 784 786 787 788 789 790 791 792 793 794 796 797 799 800 802 803 805 806 807 808 809 811 812 813 814 815 816 816 816 817 818 820 821 822
799 802 806 799 792 793 788 781 778 780 780 775 777 770 750 747 751 745 739 734 731 731 729 727 721 718 719 715 711 711 709 706 704 701 701 705 708 709 709 711 713 716 717 718 720 722 724 728 732 736 740 743 747 750 754 758 762 766 770 774 777 779 781 783 783 783 783 785 786 787 788 790 792 794 795 797 798 800 801 803 804 805 806 807 808 810 811 812 813 814 815 815 816 817 818 820 821
791 795 794 785 783 787 786 785 787 788 784 778 782 775 744 730 741 741 734 733 731 728 727 723 716 712 715 712 705 703 703 701 700 697 697 701 703 705 706 708 709 710 710 711 714 717 721 725 729 734 737 740 744 748 752 755 758 761 764 767 770 772 775 774 773 773 776 778 780 782 785 788 790 791 793 795 796 798 799 800 802 803 804 805 806 808 809 810 811 812 814 814 815 815 816 818 819
789 785 779 778 783 787 787 789 792 791 786 783 785 784 758 729 731 736 730 731 729 725 724 719 712 708 709 708 702 698 697 695 696 695 694 697 699 701 702 702 703 703 704 708 712 716 719 723 727 731 734 737 741 745 749 752 754 757 758 760 762 764 765 765 766 770 773 775 778 781 783 785 787 789 790 792 794 796 797 798 800 801 802 803 804 806 807 808 810 811 812 813 813 814 814 816 817
785 776 772 773 779 784 787 790 793 791 788 789 783 784 779 745 723 724 722 725 728 723 717 710 705 705 704 704 700 696 692 689 692 693 691 692 694 695 696 696 698 698 702 707 710 714 717 721 725 728 732 735 738 742 744 747 749 752 754 757 759 759 760 761 765 770 772 774 777 778 781 783 785 786 788 790 791 793 795 796 797 798 800 801 802 803 805 806 808 809 810 812 812 813 813 814 816
778 777 778 777 778 782 786 786 791 795 793 793 785 784 786 749 715 719 721 724 728 719 710 701 697 700 700 698 695 691 688 686 688 688 685 686 688 689 689 691 694 696 701 704 706 710 714 718 722 726 729 732 735 738 740 743 745 748 751 753 755 756 758 762 765 767 769 772 774 775 778 780 781 783 785 787 789 791 792 793 795 796 797 798 799 801 803 804 805 807 808 810 811 811 812 812 814
776 781 781 782 784 784 789 787 787 795 791 788 785 783 782 743 709 721 729 726 724 713 706 700 696 697 695 693 690 686 684 682 682 681 679 682 683 685 687 689 693 695 698 701 703 708 712 715 719 722 725 728 731 734 736 739 742 745 747 748 750 753 756 760 762 765 767 769 771 772 774 776 778 780 782 784 786 788 790 791 792 793 794 796 797 799 800 801 803 805 806 808 809 809 810 811 812
778 781 779 782 787 785 791 790 789 794 783 774 774 772 777 752 717 721 726 716 712 707 705 701 696 696 691 689 687 683 680 675 675 677 678 681 682 684 687 689 691 694 696 700 702 706 709 712 715 718 722 725 728 731 733 736 739 741 742 743 746 749 752 755 758 760 762 764 766 768 770 772 774 776 778 780 783 784 787 788 789 791 792 794 795 796 798 799 801 803 804 806 807 808 808 809 810
778 779 779 782 787 787 793 795 796 798 778 762 763 765 773 754 718 714 713 704 704 704 702 696 690 690 685 683 683 679 676 672 672 676 677 680 683 684 686 687 690 693 694 697 699 702 706 708 712 715 719 721 723 727 729 732 735 736 737 739 742 744 747 749 751 753 755 758 760 763 766 769 771 773 775 777 778 780 782 784 786 788 789 791 792 794 795 797 799 800 802 803 805 805 806 807 808
780 780 783 789 796 795 796 795 796 795 773 758 765 771 765 736 708 709 708 699 699 698 696 691 686 685 681 678 677 674 673 673 672 673 675 678 680 681 683 685 687 689 690 693 696 699 702 705 708 711 712 715 719 722 724 727 729 730 732 734 737 741 743 744 745 748 750 752 755 758 761 763 766 768 769 771 773 775 778 780 782 783 785 787 789 791 793 794 796 797 799 801 802 803 804 804 806
779 777 779 789 797 801 800 794 790 784 765 758 770 773 754 723 703 702 698 690 691 691 692 689 684 683 680 676 675 673 673 672 670 671 673 676 677 678 679 681 683 685 688 691 694 696 699 701 704 705 707 712 715 717 719 721 723 724 727 730 733 737 739 740 741 742 744 747 749 752 754 756 759 760 762 765 767 771 774 776 778 780 782 784 786 789 790 792 793 795 796 798 799 801 801 802 803
773 767 769 777 779 783 785 777 770 763 752 759 774 765 740 718 702 694 690 687 687 689 691 691 689 687 684 682 679 676 672 668 668 671 673 673 674 675 677 678 679 682 685 689 691 694 696 698 699 700 703 707 709 711 714 715 716 719 723 726 729 731 733 736 737 738 740 742 744 747 749 751 753 755 758 761 764 768 770 773 776 778 779 782 784 785 787 789 790 792 793 795 797 798 799 799 800
771 767 768 769 762 761 762 757 753 755 757 758 761 748 724 708 697 690 693 690 687 689 691 691 689 685 684 682 678 674 669 666 669 673 673 673 674 675 675 676 677 681 684 687 689 691 692 693 694 696 698 701 704 707 709 710 713 717 720 723 725 727 729 732 733 735 736 737 740 743 744 746 749 752 755 759 762 764 767 769 772 774 776 779 780 782 784 785 787 789 790 792 794 796 796 797 798
765 770 764 758 755 753 756 757 754 762 764 745 735 732 718 705 695 688 692 692 690 691 689 687 685 682 683 682 678 674 671 670 673 674 674 674 675 674 673 673 675 677 680 681 683 685 686 688 690 692 695 699 701 703 704 707 711 715 717 719 722 724 725 725 727 729 732 734 737 739 742 744 746 748 751 754 758 761 763 766 768 771 773 775 777 779 780 782 784 785 787 789 791 793 794 795 796
758 763 754 751 757 757 759 766 762 763 762 738 721 720 718 715 704 688 688 691 688 685 685 688 687 685 685 683 680 677 674 675 676 674 674 674 674 674 672 671 672 671 672 674 677 680 683 687 688 690 692 694 695 696 699 703 706 709 711 714 717 719 720 721 724 727 730 731 732 734 738 740 742 745 747 750 753 757 759 762 765 767 770 771 773 775 777 779 781 783 784 786 788 790 791 792 793
755 755 751 752 760 758 759 767 764 760 757 739 722 715 712 712 702 689 689 688 683 681 683 689 688 686 687 685 681 679 676 675 674 672 673 672 672 672 670 668 668 668 669 671 674 678 681 684 686 688 689 690 693 697 699 701 702 704 705 707 709 712 716 719 721 725 728 728 728 729 732 735 738 741 744 746 749 752 755 758 761 764 766 768 770 772 774 776 778 780 782 784 786 787 788 789 790
756 755 755 756 756 754 754 755 751 749 746 737 729 719 705 694 688 687 686 683 684 686 685 687 686 685 686 683 682 680 676 673 670 670 671 669 669 670 668 667 665 666 668 670 673 676 677 679 682 685 686 688 691 694 695 697 697 698 700 702 705 707 710 713 717 720 723 724 725 725 727 730 734 737 740 742 744 747 750 753 756 760 763 765 767 768 771 773 775 777 779 781 783 784 785 786 787
754 755 755 756 753 752 753 750 742 740 739 734 732 724 701 682 678 680 680 682 687 689 687 687 684 681 679 678 677 677 675 673 672 672 671 668 667 666 667 669 668 667 668 669 671 672 674 677 679 680 681 683 686 688 689 691 692 693 695 697 699 701 704 708 712 715 717 719 722 722 723 726 729 733 736 739 741 743 746 749 752 756 759 761 763 764 767 770 772 774 776 778 780 781 782 783 784
743 745 744 745 745 748 752 747 737 734 733 727 726 722 702 681 674 675 681 684 684 685 686 685 682 679 676 675 674 673 674 674 672 670 668 665 664 662 664 668 670 669 667 666 667 669 671 673 673 675 678 678 679 681 682 683 685 688 689 691 693 696 700 703 706 710 712 715 717 719 720 721 724 728 732 735 738 740 743 746 748 752 755 757 758 760 762 765 768 770 772 775 776 778 779 780 782